Simultaneous Nadir Overpasses (SNOs) Predictions

Prediction of SNOs between GOES-17 and METOP-C Satellite Orbit:

Table of predicted SNOs for the next 14.0 days since TLE Epoch: 11/28/2020
Index Date Time (GOES-17) GOES-17 Lat,Lon METOP-C Lat,Lon Distance(km) Time Diff (sec)
1 11/30/2020 06:42:07 0.04,-137.24 0.01,-137.29 5.94 80
2 12/02/2020 18:40:22 -0.04,-137.24 -0.14,-136.86 43.64 80
3 12/04/2020 06:59:22 0.03,-137.23 -0.89,-141.45 481.27 80
4 12/05/2020 06:36:03 0.03,-137.22 0.18,-136.45 86.94 80
5 12/06/2020 18:54:56 -0.02,-137.21 0.82,-141.02 433.97 80
6 12/07/2020 18:36:56 -0.02,-137.20 -0.26,-136.02 134.03 80
7 12/09/2020 06:55:57 0.02,-137.17 -0.77,-140.61 391.93 80
8 12/10/2020 06:32:38 0.02,-137.16 0.37,-135.62 175.61 80
9 12/11/2020 18:51:31 -0.02,-137.14 0.68,-140.18 346.40 80
